Regional Weather Roundup
Issued by NWS

Home | Current Version | Previous Version | Text Only | Print | Product List | Glossary Off
Versions: 1 2 3 4 5 6 7 8 9 10 11 12 13 14 15 16 17 18 19 20 21 22 23 24 25 26 27 28 29 30 31 32 33 34 35 36 37 38 39 40 41 42 43 44 45 46 47 48 49 50

000
ASUS43 KBIS 040410
RWRND

NORTH DAKOTA REGIONAL WEATHER ROUNDUP
NATIONAL WEATHER SERVICE BISMARCK ND
1100 PM CDT THU SEP 03 2015

NOTE: "FAIR" INDICATES FEW OR NO CLOUDS BELOW 12,000 FEET WITH NO
SIGNIFICANT WEATHER AND/OR OBSTRUCTIONS TO VISIBILITY.


NDZ001>003-009>011-017-040500-
NORTHWEST NORTH DAKOTA

CITY           SKY/WX    TMP DP  RH WIND       PRES   REMARKS
WILLISTON      CLOUDY    71  53  52 N14       29.78S
MINOT          MOCLDY    75  70  84 NW9       29.72R
$$

NDZ018>021-031>035-040>046-040500-
SOUTHWEST NORTH DAKOTA

CITY           SKY/WX    TMP DP  RH WIND       PRES   REMARKS
BISMARCK       CLOUDY    85  58  39 S21       29.69S
DICKINSON      PTCLDY    74  61  63 NE10      29.72F
GARRISON         N/A     71  66  84 N6        29.72S
HETTINGER ARPT CLEAR     71  53  52 SE5       29.73F
$$

NDZ004>008-012>016-024-026-027-054-040500-
NORTHEAST NORTH DAKOTA

CITY           SKY/WX    TMP DP  RH WIND       PRES   REMARKS
GRAND FORKS    CLOUDY    81  73  76 S16G25    29.75R
GRND FRKS AFB  CLOUDY    80  73  80 S15       29.76R
DEVILS LAKE    CLOUDY    79  64  61 SE14      29.73R
$$

NDZ022-023-025-028>030-036>039-047>053-040500-
SOUTHEAST NORTH DAKOTA

CITY           SKY/WX    TMP DP  RH WIND       PRES   REMARKS
FARGO          MOCLDY    80  73  79 SE15      29.79S
JAMESTOWN      CLOUDY    79  72  79 S13       29.76R
$$




USA.gov is the U.S. government's official web portal to all federal, state and local government web resources and services.